Погода в Бирмингеме

США     33°31′26″N   86°48′17″W
темп.,
°C
ветер,
м/с
пор.,
м/с
влажн.,
%
обл.,
%
осадки,
мм/ч
давл.,
гПа
погр.,
м
19 апреля, пн
пн1901:00+11зсз27774 0.0 1015293
04:00+9сз27830 0.0 1015241
07:00+9сз25850 0.0 1017223
10:00+15ссз35570 0.0 1017960
13:00+19ссз34401 0.0 10161771
16:00+20ссз23385 0.0 10141963
19:00+16ссв1358100 0.0 1015115
22:00+14св2463100 0.0 1016114
20 апреля, вт
вт2001:00+12юв116798 0.0 101611
04:00+12всв1169100 0.0 101611
07:00+12в1169100 0.0 101753
10:00+18ююв245097 0.0 1017691
13:00+21юз34373 0.0 10152309
16:00+22зюз45346 0.0 10132567
19:00+18зюз24543 0.0 1013130
22:00+15ююз25695 0.0 1015105
21 апреля, ср
ср2101:00+13юз29747 0.0 1015232
04:00+8ссз51176100 0.0 1017537
07:00+6ссз5107982 0.0 1021646
10:00+5ссз586738 0.0 1024851
13:00+11ссз57380 0.0 10231300
16:00+13ссз57350 0.0 10211544
19:00+10с36490 0.0 1022810
22:00+7с26590 0.0 1024202
22 апреля, чт
чт2201:00+6с13641 0.0 1024101
04:00+5св126439 0.0 102485
07:00+6с01625 0.0 102571
10:00+12сз244139 0.0 10261189
13:00+16сз353467 0.0 10241728
16:00+17сз35305 0.0 10221793
19:00+13ссв36501 0.0 1022319
22:00+10св25615 0.0 1023148
23 апреля, пт
пт2301:00+8всв1465100 0.0 1023117
04:00+8всв256399 0.0 1023167
07:00+8всв3762100 0.0 1024238
10:00+12в3450100 0.0 1024429
13:00+14юв2348100 0.0 1022593
16:00+17юв344193 0.0 1019784
19:00+14вюв2657100 0.0 1018247
22:00+13вюв2661100 0.0 1018183